Tracking 19245 objects as of 15-Aug-2018
HD Live streaming from Space Station
objects crossing your sky now

NOAA 16 DEB

Track NOAA 16 DEB now!
10-day predictions


NORAD ID: 41499
Int'l Code: 2000-055LX
Perigee: 818.1 km
Apogee: 880.2 km
Inclination: 98.8 °
Period: 101.8 minutes
Semi major axis: 7220 km
RCS: Unknown
Launch date: September 21, 2000
Source: United States (US)
Launch site: AIR FORCE WESTERN TEST RANGE (AFWTR)

Note: This is SATELLITE DEBRIS
aabbcc
Your satellite tracking list
Your tracking list is empty




NASA's NSSDC Master Catalog

Two Line Element Set (TLE):
1 41499U 00055LX  18226.44888546  .00000705  00000-0  38326-3 0  9990
2 41499  98.8039 295.7281 0043026 248.3823 111.2764 14.15079205125661
Source of the keplerian elements: AFSPC